Location: Góry Miechowskie
(50.3599°N, 20.1803°E)
Time: 15:42:24
(UTC+00:00)

A-11 Canister half - Pass Details

Date: 18 September 2024
Orbit: 1515 x 1685 km, 47.2° (Epoch: 14 October)

Event Time Altitude Azimuth Distance (km) Brightness Sun altitude
Rises 21:27:38 0° 283° (WNW) 4,679 11.9 -36.4°
Reaches altitude 10° 21:30:45 10° 279° (W) 3,686 11.2 -36.5°
Enters shadow 21:36:47 41° 253° (WSW) 2,081 9.5 -36.8°
